Home   Weather   St. George   Past weeks
Flag for USA

Past Weather in St. George, Utah, USA — Yesterday and Last 2 Weeks

Now
48 °F

Overcast.


Feels Like: 44 °F
Forecast: 63 / 47 °F
Wind: 8 mph from South

Location: Saint George

Current Time: May 20, 2019 at 6:41:36 am

Latest Report: May 20, 2019 at 5:56 am


Visibility: 10 mi

Pressure: 29.63 "Hg (26.75 "Hg at 842m altitude)

Humidity: 77%

Dew Point: 41 °F

Location of St. GeorgeLocation

Past Weather in St. George — Graph

°F

St. George Temperature Yesterday

Maximum temperature yesterday: 71 °F (at 4:56 pm)
Minimum temperature yesterday: 54 °F (at 11:10 am)
Average temperature yesterday: 63 °F

High & Low Weather Summary for the Past Weeks

 TemperatureHumidityPressure
High87 °F (May 5, 4:56 pm)97% (May 10, 4:56 am)29.96 "Hg (May 10, 4:56 am)
Low45 °F (May 18, 6:56 am)8% (May 5, 4:56 pm)29.50 "Hg (May 19, 4:56 pm)
Average66 °F41%29.79 "Hg
* Reported May 5 4:56 am — May 20 4:56 am, St. George. Weather by CustomWeather, © 2019

Note: Actual official high and low records may vary slightly from our data, if they occured in-between our weather recording intervals... More about our weather records

Advertising

St. George Weather History for the Previous 24 Hours

Scroll right to see more
 ConditionsComfort  
Time TempWeatherWind HumidityBarometerVisibility
4:56 am
Mon, May 20
51 °FMostly cloudy.14 mph63%29.63 "Hg10 mi
3:56 am51 °FPartly cloudy.9 mph63%29.63 "Hg10 mi
2:56 am53 °FLight rain. Mostly cloudy.3 mph61%29.63 "Hg10 mi
1:56 am52 °FLight rain. Mostly cloudy.17 mph59%29.60 "Hg10 mi
12:56 am54 °FPartly cloudy.6 mph59%29.61 "Hg10 mi
11:56 pm
Sun, May 19
55 °FLight rain. Mostly cloudy.8 mph55%29.62 "Hg10 mi
10:56 pm54 °FPassing clouds.10 mph57%29.62 "Hg10 mi
9:56 pm58 °FLight rain. Passing clouds.No wind44%29.62 "Hg10 mi
9:12 pm57 °FPassing clouds.14 mph44%29.64 "Hg10 mi
7:56 pm64 °FBroken clouds.13 mph32%29.54 "Hg10 mi
6:56 pm69 °FPassing clouds.17 mph18%29.51 "Hg10 mi
5:56 pm70 °FPartly sunny.22 mph19%29.51 "Hg10 mi
4:56 pm71 °FPassing clouds.32 mph24%29.50 "Hg10 mi
3:56 pm69 °FPassing clouds.32 mph27%29.54 "Hg10 mi
2:56 pm66 °FSunny.26 mph34%29.59 "Hg10 mi
1:56 pm66 °FSunny.25 mph37%29.60 "Hg10 mi
12:56 pm61 °FPassing clouds.18 mph54%29.65 "Hg10 mi
11:56 am57 °FOvercast.13 mph62%29.68 "Hg10 mi
11:10 am54 °FLight rain. Cloudy.15 mph77%29.73 "Hg10 mi
10:56 am56 °FLight rain. Mostly cloudy.17 mph67%29.67 "Hg10 mi
9:56 am57 °FLight rain. Overcast.14 mph67%29.68 "Hg10 mi
8:56 am64 °FOvercast.25 mph32%29.59 "Hg10 mi
7:56 am65 °FOvercast.8 mph28%29.59 "Hg10 mi
6:56 am65 °FOvercast.12 mph28%29.59 "Hg10 mi
Weather by CustomWeather, © 2019

See weather overview